This is the latest recevied weather packets stored in our database for station/object VR2OT-10. If no packets are shown the sender has not sent any weather packets the latest 10 day(s).
| Time | Temp. | Humidity | Pressure | Rain* | Wind** | Luminosity | Snow |
|---|---|---|---|---|---|---|---|
| 1777694537 | 25° C | 79% | 1013.1 hPa | - | 4.02 m/s, 135° | - | - |
| 1777693638 | 24.44° C | 79% | 1013.2 hPa | - | 3.58 m/s, 135° | - | - |
| 1777692739 | 25° C | 77% | 1013.3 hPa | - | 3.13 m/s, 135° | - | - |
| 1777690939 | 23.89° C | 79% | 1013.5 hPa | - | 2.24 m/s, 90° | - | - |
| 1777690039 | 23.89° C | 81% | 1013.7 hPa | - | 2.68 m/s, 90° | - | - |
| 1777689138 | 23.89° C | 80% | 1013.8 hPa | - | 3.13 m/s, 90° | - | - |
| 1777687339 | 23.89° C | 82% | 1013.5 hPa | - | 2.68 m/s, 90° | - | - |
| 1777686438 | 23.89° C | 81% | 1013.5 hPa | - | 2.68 m/s, 90° | - | - |
| 1777685539 | 23.33° C | 83% | 1013.3 hPa | - | 2.68 m/s, 90° | - | - |
| 1777684638 | 23.33° C | 83% | 1013.3 hPa | - | 2.68 m/s, 90° | - | - |
| 1777683738 | 23.33° C | 83% | 1013.3 hPa | - | 2.68 m/s, 90° | - | - |
| 1777682838 | 23.33° C | 83% | 1013.2 hPa | - | 3.58 m/s, 90° | - | - |
| 1777681939 | 23.33° C | 83% | 1013.1 hPa | - | 3.13 m/s, 90° | - | - |
| 1777681038 | 23.33° C | 83% | 1013.1 hPa | - | 3.13 m/s, 90° | - | - |
| 1777680138 | 23.33° C | 84% | 1012.8 hPa | - | 3.13 m/s, 90° | - | - |
| 1777679237 | 22.78° C | 85% | 1012.8 hPa | - | 3.13 m/s, 90° | - | - |
| 1777678337 | 23.33° C | 86% | 1012.8 hPa | - | 3.13 m/s, 90° | - | - |
| 1777677437 | 22.78° C | 86% | 1012.8 hPa | - | 3.13 m/s, 90° | - | - |
| 1777676539 | 22.78° C | 85% | 1012.5 hPa | - | 4.47 m/s, 90° | - | - |
| 1777675638 | 22.78° C | 85% | 1012.3 hPa | - | 4.02 m/s, 90° | - | - |
| 1777674739 | 22.78° C | 85% | 1012.1 hPa | - | 3.58 m/s, 90° | - | - |
| 1777673838 | 22.78° C | 85% | 1012.3 hPa | - | 3.13 m/s, 90° | - | - |
| 1777672038 | 23.33° C | 85% | 1012.3 hPa | - | 2.68 m/s, 90° | - | - |
| 1777671139 | 23.33° C | 86% | 1012.3 hPa | - | 3.13 m/s, 90° | - | - |
| 1777670238 | 23.33° C | 87% | 1012.5 hPa | - | 3.13 m/s, 90° | - | - |
* Rain since midnight (hover to see other rain measurements)
** Current wind speed in m/s (hover to see current wind gust speed)